This is the latest recevied weather packets stored in our database for station/object WB0VGI-1. If no packets are shown the sender has not sent any weather packets the latest 10 day(s).
| Time | Temp. | Humidity | Pressure | Rain* | Wind** | Luminosity | Snow |
|---|---|---|---|---|---|---|---|
| 1777942025 | 10° C | 50% | 1007.8 hPa | 0 mm | - | - | - |
| 1777940826 | 9.44° C | 50% | 1007.5 hPa | 0 mm | - | - | - |
| 1777939625 | 10° C | 50% | 1007.3 hPa | 0 mm | - | - | - |
| 1777938425 | 10.56° C | 47% | 1006.9 hPa | 0 mm | - | - | - |
| 1777937225 | 10.56° C | 45% | 1006.7 hPa | 0 mm | - | - | - |
| 1777936025 | 11.11° C | 42% | 1006.4 hPa | 0 mm | - | - | - |
| 1777934825 | 11.11° C | 44% | 1006.1 hPa | 0 mm | - | - | - |
| 1777933625 | 12.78° C | 43% | 1005.6 hPa | 0 mm | - | - | - |
| 1777932425 | 12.78° C | 43% | 1005.3 hPa | 0 mm | - | - | - |
| 1777931225 | 13.33° C | 43% | 1004.9 hPa | 0 mm | - | - | - |
| 1777930025 | 13.33° C | 44% | 1004.6 hPa | 0 mm | - | - | - |
| 1777928825 | 12.78° C | 44% | 1004.6 hPa | 0 mm | - | - | - |
| 1777927625 | 13.33° C | 43% | 1004.5 hPa | 0 mm | - | - | - |
| 1777926425 | 13.89° C | 42% | 1004.3 hPa | 0 mm | - | - | - |
| 1777925225 | 13.89° C | 45% | 1004 hPa | 0 mm | - | - | - |
| 1777924025 | 14.44° C | 44% | 1003.5 hPa | 0 mm | - | - | - |
| 1777922825 | 14.44° C | 43% | 1003.2 hPa | 0 mm | - | - | - |
| 1777921625 | 15° C | 44% | 1002.9 hPa | 0 mm | - | - | - |
| 1777920425 | 15° C | 45% | 1002.6 hPa | 0 mm | - | - | - |
| 1777919225 | 15° C | 45% | 1002.3 hPa | 0 mm | - | - | - |
| 1777918025 | 15° C | 49% | 1002 hPa | 0 mm | - | - | - |
| 1777916825 | 15° C | 50% | 1001.7 hPa | 0 mm | - | - | - |
| 1777915625 | 15° C | 48% | 1001.4 hPa | 0 mm | - | - | - |
| 1777914425 | 15° C | 48% | 1001.5 hPa | 0 mm | - | - | - |
| 1777913225 | 15° C | 48% | 1000.9 hPa | 0 mm | - | - | - |
* Rain latest hour (hover to see other rain measurements)
** Current wind speed in m/s (hover to see current wind gust speed)